WetterOnline ( http://www.wetteronline.de )

Wetter aktuell Denkendorf

Aktuelles Wetter: Roth (386m)

6-stündlich | Neueste Meldungen
Ortszeit Temperatur Wetter
Sa, 21.07. 20:00 18.5° C Regen
Sa, 21.07. 14:00 18.4° C leichter Regen
Sa, 21.07. 8:00 19.3° C bewölkt
Sa, 21.07. 2:00 21.6° C bewölkt
Fr, 20.07. 20:00 27.2° C bewölkt
Fr, 20.07. 14:00 27.2° C bedeckt
Fr, 20.07. 8:00 17.7° C wolkenlos
Fr, 20.07. 2:00 14.3° C leicht bewölkt
Ortszeit Temperatur Wetter
So, 22.07. 0:30 17.1° C Sprühregen
So, 22.07. 0:20 17.1° C Sprühregen
So, 22.07. 0:10 17.2° C leichter Regen
So, 22.07. 0:00 17.2° C leichter Regen
Sa, 21.07. 23:50 17.2° C leichter Regen
Sa, 21.07. 23:40 17.3° C leichter Regen
Sa, 21.07. 23:30 17.5° C leichter Regen
Sa, 21.07. 23:00 17.5° C bedeckt
Sa, 21.07. 22:30 17.7° C bedeckt
Sa, 21.07. 22:00 17.7° C bedeckt
Sa, 21.07. 21:30 17.8° C wolkig
Ortszeit Relative Feuchte Sichtweite
Sa, 21.07. 20:00 88% 12 km
Sa, 21.07. 14:00 89% 4.2 km
Sa, 21.07. 8:00 75% 23 km
Sa, 21.07. 2:00 55% 30 km
Fr, 20.07. 20:00 36% 35 km
Fr, 20.07. 14:00 32% 35 km
Fr, 20.07. 8:00 63% 26 km
Fr, 20.07. 2:00 70% 24 km
Ortszeit Relative Feuchte Sichtweite
So, 22.07. 0:30 96% 2.3 km
So, 22.07. 0:20 96% -
So, 22.07. 0:10 96% -
So, 22.07. 0:00 96% 1.9 km
Sa, 21.07. 23:50 96% -
Sa, 21.07. 23:40 96% -
Sa, 21.07. 23:30 96% 2.7 km
Sa, 21.07. 23:00 96% 2.4 km
Sa, 21.07. 22:30 96% 3.4 km
Sa, 21.07. 22:00 96% 3.4 km
Sa, 21.07. 21:30 95% 3.9 km
Ortszeit Niederschlagsmenge Niederschlagsart
Sa, 21.07. 20:00 9 l/m2 in 12 Std. Regen
Sa, 21.07. 14:00 7 l/m2 in 6 Std. Regen
Sa, 21.07. 8:00 0.1 l/m2 in 12 Std. Regen
Sa, 21.07. 2:00 0.1 l/m2 in 6 Std. Schneeregen
Fr, 20.07. 20:00 0.0 l/m2 in 12 Std. -
Fr, 20.07. 14:00 0.0 l/m2 in 6 Std. -
Fr, 20.07. 8:00 0.0 l/m2 in 12 Std. -
Fr, 20.07. 2:00 0.0 l/m2 in 6 Std. -
Ortszeit Niederschlagsmenge Niederschlagsart
So, 22.07. 0:30 0.6 l/m2 in 1 Std. -
So, 22.07. 0:20 keine Meldung -
So, 22.07. 0:10 keine Meldung -
So, 22.07. 0:00 0.2 l/m2 in 1 Std. Regen
Sa, 21.07. 23:50 keine Meldung -
Sa, 21.07. 23:40 keine Meldung -
Sa, 21.07. 23:30 0.1 l/m2 in 1 Std. -
Sa, 21.07. 23:00 0.1 l/m2 in 1 Std. Regen
Sa, 21.07. 22:30 0.1 l/m2 in 1 Std. Schnee
Sa, 21.07. 22:00 0.1 l/m2 in 1 Std. Regen
Sa, 21.07. 21:30 0.1 l/m2 in 1 Std. Schneeregen
Ortszeit Stärke Spitze Richtung
km/h Bft. km/h Grad Sektor
Sa, 21.07. 20:00 6 1 13 10° N
Sa, 21.07. 14:00 4 1 18 260° W
Sa, 21.07. 8:00 4 1 22 200° S
Sa, 21.07. 2:00 9 2 24 200° S
Fr, 20.07. 20:00 6 1 26 150° SO
Fr, 20.07. 14:00 9 2 19 270° W
Fr, 20.07. 8:00 0 0 14 - -
Fr, 20.07. 2:00 4 1 18 200° S
Ortszeit Stärke Spitze Richtung
km/h Bft. km/h Grad Sektor
So, 22.07. 0:30 7 2 11 310° NW
So, 22.07. 0:20 7 2 - 310° NW
So, 22.07. 0:10 9 2 - 310° NW
So, 22.07. 0:00 7 2 11 290° W
Sa, 21.07. 23:50 7 2 - 290° W
Sa, 21.07. 23:40 7 2 - 280° W
Sa, 21.07. 23:30 7 2 9 280° W
Sa, 21.07. 23:00 0 0 4 - -
Sa, 21.07. 22:30 0 0 4 - -
Sa, 21.07. 22:00 4 1 7 290° W
Sa, 21.07. 21:30 6 1 6 330° NW
Ortszeit Untergrenze Bedeckung Gattung
total tief tief mittel hoch
Sa, 21.07. 20:00 2400 m 8/8 7/8 - - -
Sa, 21.07. 14:00 180 m 8/8 8/8 - - -
Sa, 21.07. 8:00 2400 m 8/8 6/8 - - -
Sa, 21.07. 2:00 2100 m 8/8 5/8 - - -
Fr, 20.07. 20:00 2400 m 8/8 4/8 - - -
Fr, 20.07. 14:00 5700 m 8/8 8/8 - - -
Fr, 20.07. 8:00 8400 m 0/8 0/8 - - -
Fr, 20.07. 2:00 2700 m 2/8 1/8 - - -
Ortszeit Bedeckungsgrad in Achtel und Wolkenuntergrenze
So, 22.07. 0:30 4(1470m) 8(1500m)
So, 22.07. 0:20 4(1470m) 8(1500m)
So, 22.07. 0:10 1(1470m) 8(1800m)
So, 22.07. 0:00 1(1410m) 8(1800m)
Sa, 21.07. 23:50 1(1410m) 8(1800m)
Sa, 21.07. 23:40 1(1410m) 8(1800m)
Sa, 21.07. 23:30 4(1290m) 8(1800m)
Sa, 21.07. 23:00 4(1320m) 8(1500m) 8(1800m)
Sa, 21.07. 22:30 3(90m) 8(1500m) 8(2400m)
Sa, 21.07. 22:00 6(210m) 8(2700m) 8(3300m)
Sa, 21.07. 21:30 3(180m) 8(3000m) 8(3600m)
Ortszeit Luftdruck NN (hPa) Tendenz (hPa in 3 Std.)
Sa, 21.07. 20:00 1012 - 0,2
Sa, 21.07. 14:00 1013 + 0,7
Sa, 21.07. 8:00 1011 + 0,5
Sa, 21.07. 2:00 1011 0,0
Fr, 20.07. 20:00 1010 - 0,9
Fr, 20.07. 14:00 1012 - 0,9
Fr, 20.07. 8:00 1015 - 0,2
Fr, 20.07. 2:00 1016 0,0
Ortszeit Luftdruck NN (hPa) Tendenz (hPa in 3 Std.)
So, 22.07. 0:30 1013 + 0,6
So, 22.07. 0:20 1013 keine Meldung
So, 22.07. 0:10 1013 keine Meldung
So, 22.07. 0:00 1013 + 0,6
Sa, 21.07. 23:50 1013 keine Meldung
Sa, 21.07. 23:40 1013 keine Meldung
Sa, 21.07. 23:30 1013 + 0,7
Sa, 21.07. 23:00 1013 + 0,8
Sa, 21.07. 22:30 1013 + 0,9
Sa, 21.07. 22:00 1012 + 0,5
Sa, 21.07. 21:30 1012 + 0,3
Ortszeit Schneehöhe (cm)
Sa, 21.07. 20:00 -
Sa, 21.07. 14:00 -
Sa, 21.07. 8:00 -
Sa, 21.07. 2:00 -
Fr, 20.07. 20:00 -
Fr, 20.07. 14:00 -
Fr, 20.07. 8:00 -
Fr, 20.07. 2:00 -
Ortszeit Schneehöhe (cm)
So, 22.07. 0:30 -
So, 22.07. 0:20 -
So, 22.07. 0:10 -
So, 22.07. 0:00 -
Sa, 21.07. 23:50 -
Sa, 21.07. 23:40 -
Sa, 21.07. 23:30 -
Sa, 21.07. 23:00 -
Sa, 21.07. 22:30 -
Sa, 21.07. 22:00 -
Sa, 21.07. 21:30 -
Link zu dieser Seite / Seite empfehlen

Das Wetter in ...